Presure
125 126 127 135 141 137 142 136 134 140 142 137 140 140 143 140 140 141 140 144 142 141 150 140 158 143 161 167 162 161 131 179 146 254 244 244 196 222 205 198 186 177 159 147 143
138 125 126 127 134 132 134 138 133 140 140 143 142 135 138 142 143 141 146 141 145 142 148 134 149 155 169 159 148 134 135 180 145 146 159 216 231 231 241 263 288 215 199 168 166
139 120 127 124 127 131 125 123 136 132 140 135 136 134 139 135 140 142 146 142 146 143 150 149 142 151 149 151 129 150 131 182 193 160 144 155 151 245 214 226 246 267 245 226 188
148 149 150 150 121 119 127 127 122 126 130 129 133 133 139 138 140 140 143 143 144 135 121 142 127 141 156 135 133 189 194 155 182 134 150 139 221 158 256 230 213 236 250 301 253
150 150 151 155 163 152 120 126 120 129 126 130 124 129 133 125 132 136 143 147 146 119 132 132 148 148 137 134 150 155 156 161 196 147 167 188 180 212 212 225 265 205 227 224 249
142 143 144 149 152 162 177 127 134 130 124 128 130 125 125 135 126 135 134 137 123 137 145 110 145 142 144 153 139 145 148 177 129 158 170 144 203 197 207 209 222 276 191 224 185
157 130 146 138 142 149 153 157 191 119 124 125 126 129 131 125 121 130 135 135 105 136 138 144 139 147 113 148 140 150 149 181 145 173 169 157 172 169 195 206 209 224 271 181 213
135 133 139 138 140 139 138 147 158 176 202 152 129 127 131 132 135 135 129 136 137 139 140 124 144 147 146 121 146 150 133 165 152 160 170 166 165 179 193 193 209 217 275 266 193
162 150 138 141 142 131 137 143 141 140 142 160 191 180 139 138 140 136 136 137 135 126 123 136 141 130 149 164 141 155 142 157 183 149 141 175 169 200 195 172 207 222 248 277 178
167 190 161 140 144 142 138 143 137 137 140 143 142 150 181 196 143 139 136 139 135 139 143 138 132 139 148 152 147 150 146 164 142 155 187 167 166 171 180 181 204 223 229 279 189
154 154 152 151 152 178 179 146 141 143 147 146 146 142 146 136 174 187 196 199 148 113 145 147 125 148 145 149 148 140 146 156 145 150 143 191 175 167 177 192 203 224 249 279 244
259 195 176 163 160 155 154 154 218 262 149 148 145 147 144 144 144 145 165 177 190 209 195 152 141 148 147 148 135 149 150 157 133 150 157 174 157 165 178 194 207 232 229 286 248
238 238 234 242 249 218 180 196 188 164 162 160 159 158 143 149 143 154 143 155 150 178 183 185 168 177 183 147 126 138 149 127 173 131 180 175 186 156 172 180 212 229 221 292 268
224 226 231 232 239 234 239 239 238 223 184 188 204 221 236 224 141 90 148 158 153 163 181 177 158 171 175 149 139 141 146 173 164 153 167 168 177 156 165 192 209 192 205 268 278
207 212 218 223 221 229 230 227 226 231 228 226 226 226 230 180 182 132 134 145 144 151 148 178 174 174 179 160 142 128 149 141 152 158 173 176 141 160 171 183 201 223 203 246 270
194 200 202 206 211 216 216 217 218 221 217 216 217 179 200 216 217 221 343 140 139 151 132 139 153 163 189 151 143 128 149 144 164 119 158 170 196 185 186 198 203 196 257 198 260
198 182 182 192 199 200 204 209 206 208 212 210 212 213 211 213 184 210 303 317 315 116 148 154 141 156 162 187 161 142 149 141 143 120 185 163 176 165 188 196 202 205 207 209 251
211 184 200 174 182 184 191 199 203 208 205 209 208 208 207 114 209 218 267 297 302 273 147 147 151 150 157 165 181 150 150 141 157 119 159 162 172 172 179 195 196 189 223 282 224
215 224 237 206 196 185 180 182 188 196 200 204 204 207 206 207 221 211 268 270 288 300 167 138 157 154 151 158 168 134 147 146 169 157 139 164 173 165 178 196 189 195 215 245 201
234 226 221 215 225 238 210 193 192 180 180 186 189 193 194 198 205 212 212 260 265 274 283 189 148 166 150 155 160 169 175 191 144 139 171 161 171 155 180 191 187 136 215 275 241
202 217 235 228 216 215 213 232 224 200 190 180 183 183 186 189 210 211 206 246 257 259 267 227 232 143 155 156 155 166 171 176 160 197 137 155 178 157 179 188 190 197 198 131 244
197 192 192 216 220 229 227 218 216 217 225 226 199 196 189 192 238 217 205 208 244 260 258 262 173 265 147 140 157 151 163 176 190 201 193 165 186 184 182 189 189 152 218 186 238
190 182 189 195 196 198 203 211 220 230 225 211 215 226 231 207 198 229 210 205 211 238 283 253 261 262 268 160 163 155 160 167 165 178 191 117 201 184 192 149 190 190 163 264 180
184 187 186 189 198 208 196 200 204 203 217 236 226 217 210 220 221 201 240 206 206 212 235 287 246 253 165 207 161 181 158 165 168 185 150 143 158 178 185 170 183 194 172 132 139
201 189 180 178 180 185 192 187 190 198 208 213 214 228 227 219 208 224 202 226 201 205 213 233 290 239 250 175 233 166 166 158 168 153 157 145 155 182 180 128 190 190 159 133 139
191 192 200 191 185 180 182 188 195 189 195 199 207 202 210 227 229 210 209 223 213 198 203 213 232 274 238 251 251 174 159 163 170 167 185 174 162 157 176 167 184 156 168 137 157
188 192 190 189 184 184 187 186 197 195 199 191 193 200 212 205 207 225 236 220 234 212 197 202 212 231 266 240 256 248 219 166 170 159 184 153 149 157 176 195 137 151 134 123 134
Wind_Speed
19 19 19 24 26 26 27 26 24 26 25 23 22 23 19 20 20 18 14 13 12 13 13 9 11 11 12 10 6 6 1 4 6 7 16 18 25 30 38 40 38 37 41 34 33
28 21 20 20 24 22 22 25 21 26 23 24 23 22 20 21 21 18 18 12 13 13 14 5 11 13 16 10 5 0 4 12 6 4 4 3 10 12 5 1 3 39 45 41 43
32 16 20 17 19 22 17 14 24 22 25 21 21 20 22 19 20 20 19 13 12 11 14 11 9 14 14 6 8 10 2 19 9 7 4 5 5 4 11 9 5 4 27 41 45
32 32 32 31 15 13 20 18 13 18 20 17 18 18 22 21 22 19 16 13 10 5 6 9 3 12 16 7 7 18 13 11 18 5 5 5 9 19 17 5 13 11 12 1 31
32 32 31 30 32 27 17 21 14 24 20 21 14 14 19 14 18 18 17 15 10 5 3 8 12 8 8 5 15 15 12 16 6 8 13 12 25 15 9 18 12 15 17 18 15
27 28 29 29 28 30 35 25 29 26 21 23 24 17 15 24 15 20 11 7 5 5 10 8 14 12 16 18 6 10 8 17 4 13 23 9 14 17 15 10 18 13 15 20 19
40 28 31 27 29 30 29 30 37 22 23 23 25 26 23 20 16 19 17 10 7 7 10 11 14 14 7 16 6 16 11 17 7 16 16 14 19 20 14 17 17 18 13 13 20
33 32 32 32 32 29 27 28 30 34 39 37 30 28 27 28 31 28 16 17 12 11 13 8 13 15 17 11 14 12 2 14 12 14 16 14 16 21 19 18 22 18 13 18 15
47 41 35 36 36 32 32 31 31 31 29 31 39 39 37 35 35 31 28 22 16 14 9 12 12 10 19 15 10 14 5 13 17 7 5 17 15 23 20 14 29 24 15 15 16
45 45 41 39 38 38 36 35 34 35 35 34 32 31 39 41 38 36 29 27 18 18 20 16 16 16 19 16 14 10 10 14 4 14 15 14 13 19 23 19 29 29 21 12 20
49 49 48 47 46 49 48 39 38 37 39 39 36 35 34 28 35 41 41 39 35 12 25 25 18 19 18 17 13 7 6 12 3 10 5 20 18 18 23 27 31 27 14 17 23
37 49 52 53 51 49 48 47 45 45 43 41 39 38 38 35 36 38 40 37 38 38 35 29 25 22 21 16 11 11 6 10 9 10 14 16 9 18 22 27 28 27 20 17 25
34 35 37 37 36 44 51 47 48 51 50 48 45 43 40 38 37 40 37 34 29 34 35 35 32 30 30 19 16 10 9 16 14 9 15 16 13 12 18 20 24 27 18 12 26
32 34 33 35 34 36 33 32 33 38 50 48 44 39 40 39 41 13 42 37 35 31 35 37 31 29 30 23 19 14 12 16 9 13 13 16 13 6 16 21 19 12 16 5 17
32 30 31 32 34 32 32 34 35 34 35 36 38 39 37 47 46 42 39 39 35 30 32 39 35 33 34 26 22 17 15 12 11 13 15 17 3 5 15 18 15 29 13 3 15
36 34 33 32 32 33 34 35 35 34 37 39 40 44 40 37 38 40 26 44 33 35 27 29 35 32 41 27 24 21 20 18 15 17 8 13 10 14 13 15 13 13 12 11 14
38 38 37 35 36 36 35 35 36 36 39 40 40 39 39 38 32 39 25 24 31 25 34 37 30 31 26 35 30 26 24 22 19 18 12 7 12 5 15 15 16 17 14 10 8
40 41 39 40 40 40 38 38 38 39 39 39 38 39 39 22 38 36 26 27 28 38 38 39 41 35 31 25 31 32 29 27 21 19 16 14 14 9 13 14 12 8 21 7 11
34 33 32 40 42 43 42 42 40 39 40 38 39 39 36 38 35 35 24 26 30 34 46 32 40 38 34 32 30 31 30 28 25 23 15 18 16 4 11 12 9 10 16 5 9
26 30 32 35 33 32 43 46 44 43 42 40 40 39 36 37 36 34 30 25 26 29 38 49 43 44 39 36 36 30 28 31 31 23 23 17 19 10 9 9 7 14 16 6 9
23 23 23 29 33 35 38 35 40 47 47 45 44 41 40 39 38 36 32 24 27 28 32 43 48 41 43 43 39 33 30 30 33 30 22 19 23 15 12 9 4 7 8 16 6
30 26 26 26 26 26 30 37 37 38 37 38 48 47 45 42 36 38 36 30 23 28 33 36 51 44 46 39 41 42 39 37 31 33 26 27 22 19 15 11 5 14 13 1 8
38 34 32 30 30 30 31 32 31 31 36 41 40 37 37 44 43 38 40 35 28 25 26 36 35 40 44 48 49 49 44 39 37 32 31 24 25 20 16 18 9 6 10 7 10
43 43 39 38 38 36 36 36 36 35 33 32 37 40 42 38 41 44 37 40 34 31 28 28 40 40 53 49 49 47 43 39 34 28 36 30 25 21 19 18 15 8 9 21 18
49 50 46 43 44 40 40 39 39 39 38 37 36 36 37 40 43 39 44 39 39 36 33 32 29 44 44 52 49 49 45 42 39 40 42 36 31 26 23 23 16 11 18 19 19
47 50 51 54 52 49 47 49 48 47 46 43 42 40 38 36 37 44 45 41 42 42 38 38 34 33 46 43 44 52 51 50 45 43 39 38 36 30 27 25 20 24 18 20 18
52 54 56 57 57 58 56 56 51 53 52 50 46 46 44 42 41 39 40 44 41 45 46 43 42 37 39 46 41 40 49 55 49 52 41 42 36 32 30 25 30 29 26 22 20
Wind_Direction
244 246 244 233 233 230 225 232 244 241 237 251 246 256 252 267 276 282 303 297 323 319 320 343 334 330 322 358 30 8 288 347 327 235 241 216 251 239 241 241 240 229 228 239 244
239 245 249 254 237 245 247 237 256 247 244 239 242 270 273 264 269 286 286 308 308 311 310 351 333 318 327 335 110 304 355 340 339 330 10 288 233 228 229 304 286 235 233 225 224
241 237 250 246 258 252 259 265 247 265 250 261 262 274 272 285 278 287 284 305 311 308 305 325 340 321 324 0 157 359 337 350 349 354 150 82 41 66 245 247 244 252 234 234 229
244 246 249 248 228 230 258 261 260 272 274 280 270 281 272 279 278 289 293 302 318 302 138 318 8 322 299 86 102 319 329 14 343 335 356 232 69 338 33 293 259 244 224 69 229
249 249 250 252 253 249 231 248 238 260 267 274 273 286 279 285 289 292 289 289 301 200 246 300 313 289 351 110 327 351 357 357 4 353 344 22 337 27 37 35 339 257 247 227 215
254 250 251 253 253 254 251 246 250 251 248 263 269 262 265 271 269 281 287 291 216 286 290 154 298 298 302 308 33 2 356 341 355 8 3 343 10 356 4 6 9 307 241 244 234
253 246 252 252 254 252 250 248 245 234 243 246 254 261 260 256 240 268 273 269 186 269 275 276 280 285 197 303 331 326 356 322 339 345 355 29 1 0 338 353 348 344 268 237 236
242 243 246 247 247 246 245 248 249 248 245 247 248 251 253 255 258 261 245 265 264 262 256 248 267 276 277 168 305 317 120 338 0 352 350 2 16 357 360 346 343 337 283 229 226
253 249 244 247 249 249 247 245 245 247 246 246 247 246 251 252 253 257 257 256 246 233 228 234 258 244 278 272 294 309 334 336 298 9 70 347 9 343 351 5 341 343 328 239 231
254 252 250 246 249 250 246 247 243 246 247 246 241 240 245 244 251 254 255 257 247 251 257 239 231 247 268 272 278 302 317 329 47 350 318 355 15 8 355 347 337 338 336 242 214
254 253 253 254 253 252 252 250 246 245 245 244 243 245 244 241 240 243 243 238 258 215 256 252 229 251 247 265 270 270 312 327 65 353 63 329 333 12 349 338 338 338 319 220 204
259 253 252 253 254 253 253 253 252 255 246 244 241 241 241 242 246 250 246 246 243 226 227 249 233 241 242 244 223 268 294 314 133 332 337 329 11 358 341 344 335 344 347 198 198
255 255 255 256 256 253 251 250 250 250 249 249 247 244 237 238 241 243 249 247 243 242 238 236 247 247 246 227 189 218 258 164 272 125 304 302 306 39 9 354 336 352 356 194 202
254 254 253 252 252 251 250 249 247 248 250 250 247 244 243 244 237 207 245 240 241 236 239 240 239 241 245 225 221 229 237 240 273 281 288 289 309 31 20 342 345 2 359 197 192
252 252 253 252 251 249 245 246 247 245 243 242 243 245 246 244 243 247 252 241 238 232 234 243 242 242 240 229 222 207 236 224 263 271 271 283 110 11 347 344 348 359 0 279 187
256 254 250 250 250 249 248 248 247 244 243 242 244 246 246 248 249 248 245 247 241 230 224 231 233 233 236 230 222 213 230 231 241 170 240 289 308 303 319 340 358 0 339 357 209
255 253 253 253 251 250 250 250 248 245 244 243 244 246 247 248 246 249 246 230 230 223 228 229 234 232 227 235 227 228 223 229 230 179 228 219 279 335 327 337 2 9 353 339 262
254 252 253 252 252 251 251 248 246 246 245 246 246 247 248 237 249 252 254 239 230 227 225 226 230 230 225 214 234 224 218 226 227 187 247 260 265 296 315 326 347 345 1 303 326
258 255 250 252 252 251 251 250 249 248 247 248 249 249 248 252 253 249 249 242 241 227 224 220 228 229 225 217 218 224 220 224 227 230 201 250 251 262 294 314 327 345 357 346 4
263 259 255 253 249 245 249 250 249 249 248 246 245 245 246 250 251 248 249 241 236 233 231 221 218 221 219 216 217 214 223 232 230 213 216 220 243 194 265 291 306 131 357 318 304
269 265 256 253 252 251 251 246 246 248 249 248 246 245 244 245 247 246 243 246 232 226 230 225 227 221 214 216 216 213 214 220 228 231 204 220 223 201 246 256 281 319 345 132 295
279 266 264 264 258 253 251 252 250 248 244 244 248 247 244 244 240 240 241 239 241 231 225 225 220 227 219 222 212 215 214 222 227 232 215 224 209 220 231 231 230 158 345 45 309
275 257 267 268 267 261 259 257 253 251 247 247 246 242 240 243 244 238 237 234 231 229 230 229 223 221 226 214 213 213 215 214 213 207 218 193 228 218 219 188 217 200 160 350 137
272 271 271 272 271 261 263 264 262 252 253 250 247 245 243 239 239 240 235 233 226 225 225 228 229 225 213 216 217 220 217 213 211 209 222 202 212 217 219 202 208 206 180 159 149
259 262 269 270 271 266 264 263 265 264 260 255 249 248 244 240 239 238 235 236 229 225 221 220 226 225 223 212 217 214 213 210 211 215 218 211 216 215 220 194 217 195 179 173 163
259 254 255 258 263 264 266 267 263 267 265 263 256 247 246 246 242 237 236 232 229 222 224 222 222 224 223 219 217 213 211 210 206 204 218 214 217 208 211 204 211 193 186 185 166
260 259 258 257 260 260 258 259 254 257 258 263 258 257 254 246 240 242 240 238 232 226 219 221 222 225 224 219 214 215 217 210 204 211 213 211 206 210 214 209 202 196 195 197 189